Météo par heure à Alkino

Ce jour, 15 Mai, Samedi

Heure Température Précipitation Vent Pression Humidité
00:00 +19°C° 0 mm 2 m/s 760 mmHg 56%
01:00 +18°C° 0 mm 2 m/s 760 mmHg 56%
02:00 +18°C° 0 mm 2 m/s 760 mmHg 56%
03:00 +17°C° 0 mm 2 m/s 760 mmHg 54%
04:00 +18°C° 0 mm 2 m/s 760 mmHg 53%
05:00 +19°C° 0 mm 2 m/s 760 mmHg 53%
06:00 +20°C° 0 mm 2 m/s 760 mmHg 52%
07:00 +22°C° 0 mm 3 m/s 760 mmHg 47%
08:00 +25°C° 0 mm 4 m/s 760 mmHg 41%
09:00 +27°C° 0 mm 4 m/s 760 mmHg 36%
10:00 +29°C° 0 mm 5 m/s 760 mmHg 33%
11:00 +30°C° 0 mm 5 m/s 760 mmHg 29%
12:00 +32°C° 0 mm 5 m/s 760 mmHg 26%
13:00 +32°C° 0 mm 5 m/s 760 mmHg 26%
14:00 +33°C° 0 mm 5 m/s 759 mmHg 27%
15:00 +33°C° 0 mm 4 m/s 759 mmHg 27%
16:00 +30°C° 0 mm 4 m/s 759 mmHg 33%
17:00 +29°C° 0 mm 3 m/s 759 mmHg 39%
18:00 +28°C° 0 mm 2 m/s 759 mmHg 45%
19:00 +26°C° 0 mm 2 m/s 759 mmHg 45%
20:00 +24°C° 0 mm 2 m/s 759 mmHg 46%
21:00 +23°C° 0 mm 2 m/s 759 mmHg 47%
22:00 +21°C° 0 mm 2 m/s 759 mmHg 47%
23:00 +20°C° 0 mm 2 m/s 759 mmHg 48%

Demain, 16 Mai, Dimanche

Heure Température Précipitation Vent Pression Humidité
00:00 +20°C° 0 mm 2 m/s 759 mmHg 48%
01:00 +19°C° 0 mm 2 m/s 759 mmHg 47%
02:00 +19°C° 0 mm 2 m/s 759 mmHg 47%
03:00 +20°C° 0 mm 1 m/s 759 mmHg 47%
04:00 +21°C° 0 mm 1 m/s 759 mmHg 48%
05:00 +21°C° 0 mm 1 m/s 759 mmHg 48%
06:00 +22°C° 0 mm 1 m/s 759 mmHg 49%
07:00 +24°C° 0 mm 2 m/s 759 mmHg 45%
08:00 +26°C° 0 mm 3 m/s 759 mmHg 41%
09:00 +29°C° 0 mm 4 m/s 759 mmHg 37%
10:00 +30°C° 0 mm 4 m/s 759 mmHg 34%
11:00 +32°C° 0 mm 4 m/s 758 mmHg 31%
12:00 +33°C° 0 mm 5 m/s 758 mmHg 28%
13:00 +33°C° 0 mm 5 m/s 758 mmHg 27%
14:00 +33°C° 0 mm 4 m/s 758 mmHg 27%
15:00 +34°C° 0 mm 4 m/s 758 mmHg 26%
16:00 +31°C° 0 mm 3 m/s 757 mmHg 31%
17:00 +30°C° 0 mm 3 m/s 757 mmHg 37%
18:00 +29°C° 0 mm 2 m/s 757 mmHg 42%
19:00 +27°C° 0 mm 2 m/s 757 mmHg 42%
20:00 +26°C° 0 mm 2 m/s 757 mmHg 43%
21:00 +24°C° 0 mm 2 m/s 757 mmHg 43%
22:00 +23°C° 0 mm 2 m/s 757 mmHg 44%
23:00 +23°C° 0 mm 2 m/s 757 mmHg 46%

Après-demain, 17 Mai, Lundi

Heure Température Précipitation Vent Pression Humidité
00:00 +21°C° 0 mm 2 m/s 758 mmHg 47%
01:00 +20°C° 0 mm 2 m/s 758 mmHg 48%
02:00 +20°C° 0 mm 2 m/s 758 mmHg 49%
03:00 +20°C° 0 mm 2 m/s 758 mmHg 51%
04:00 +21°C° 0 mm 1 m/s 758 mmHg 52%
05:00 +22°C° 0 mm 1 m/s 758 mmHg 53%
06:00 +23°C° 0 mm 1 m/s 759 mmHg 54%
07:00 +25°C° 0 mm 1 m/s 759 mmHg 50%
08:00 +26°C° 0 mm 2 m/s 759 mmHg 46%
09:00 +28°C° 0 mm 2 m/s 759 mmHg 43%
10:00 +29°C° 0 mm 2 m/s 759 mmHg 39%
11:00 +30°C° 0 mm 2 m/s 758 mmHg 36%
12:00 +32°C° 0 mm 2 m/s 758 mmHg 33%
13:00 +32°C° 0 mm 2 m/s 758 mmHg 31%
14:00 +32°C° 0 mm 2 m/s 758 mmHg 29%
15:00 +32°C° 0 mm 2 m/s 758 mmHg 27%
16:00 +30°C° 0 mm 3 m/s 758 mmHg 35%
17:00 +28°C° 0 mm 3 m/s 758 mmHg 44%
18:00 +25°C° 0 mm 4 m/s 758 mmHg 52%
19:00 +25°C° 0 mm 3 m/s 758 mmHg 51%
20:00 +24°C° 0 mm 2 m/s 758 mmHg 51%
21:00 +23°C° 0 mm 1 m/s 758 mmHg 50%
22:00 +23°C° 0 mm 1 m/s 758 mmHg 49%
23:00 +22°C° 0 mm 1 m/s 758 mmHg 48%

18 Mai, Mardi

Heure Température Précipitation Vent Pression Humidité
00:00 +22°C° 0 mm 1 m/s 758 mmHg 47%
01:00 +22°C° 0 mm 1 m/s 758 mmHg 49%
02:00 +21°C° 0 mm 1 m/s 758 mmHg 51%
03:00 +20°C° 0 mm 1 m/s 758 mmHg 53%
04:00 +21°C° 0 mm 1 m/s 758 mmHg 52%
05:00 +22°C° 0 mm 1 m/s 758 mmHg 52%
06:00 +23°C° 0 mm 1 m/s 758 mmHg 52%
07:00 +25°C° 0 mm 1 m/s 758 mmHg 48%
08:00 +27°C° 0 mm 1 m/s 758 mmHg 43%
09:00 +29°C° 0 mm 2 m/s 757 mmHg 39%
10:00 +30°C° 0 mm 1 m/s 757 mmHg 34%
11:00 +31°C° 0 mm 1 m/s 757 mmHg 28%
12:00 +32°C° 0 mm 1 m/s 757 mmHg 23%
13:00 +32°C° 0 mm 1 m/s 757 mmHg 22%
14:00 +32°C° 0 mm 1 m/s 757 mmHg 21%
15:00 +32°C° 0 mm 1 m/s 757 mmHg 20%
16:00 +31°C° 0 mm 1 m/s 756 mmHg 25%
17:00 +30°C° 0 mm 1 m/s 756 mmHg 30%
18:00 +29°C° 0 mm 1 m/s 756 mmHg 35%
19:00 +27°C° 0 mm 2 m/s 756 mmHg 34%
20:00 +26°C° 0 mm 2 m/s 756 mmHg 34%
21:00 +24°C° 0 mm 2 m/s 756 mmHg 33%
22:00 +23°C° 0 mm 2 m/s 756 mmHg 41%
23:00 +21°C° 0 mm 2 m/s 756 mmHg 48%

19 Mai, Mercredi

Heure Température Précipitation Vent Pression Humidité
00:00 +20°C° 0 mm 2 m/s 756 mmHg 56%
01:00 +20°C° 0 mm 2 m/s 756 mmHg 58%
02:00 +20°C° 0 mm 2 m/s 756 mmHg 60%
03:00 +19°C° 0 mm 2 m/s 756 mmHg 61%
04:00 +20°C° 0 mm 2 m/s 756 mmHg 61%
05:00 +21°C° 0 mm 2 m/s 756 mmHg 60%
06:00 +23°C° 0 mm 2 m/s 756 mmHg 59%
07:00 +25°C° 0 mm 3 m/s 756 mmHg 55%
08:00 +27°C° 0 mm 3 m/s 756 mmHg 50%
09:00 +28°C° 0 mm 4 m/s 756 mmHg 46%
10:00 +29°C° 0 mm 4 m/s 756 mmHg 42%
11:00 +30°C° 0 mm 4 m/s 756 mmHg 39%
12:00 +32°C° 0 mm 5 m/s 756 mmHg 36%
13:00 +32°C° 0 mm 5 m/s 755 mmHg 35%
14:00 +33°C° 0 mm 5 m/s 755 mmHg 34%
15:00 +33°C° 0 mm 5 m/s 755 mmHg 33%
16:00 +30°C° 0 mm 4 m/s 755 mmHg 39%
17:00 +29°C° 0 mm 3 m/s 754 mmHg 46%
18:00 +27°C° 0 mm 3 m/s 754 mmHg 53%
19:00 +26°C° 0 mm 4 m/s 754 mmHg 55%
20:00 +25°C° 0 mm 5 m/s 754 mmHg 58%
21:00 +23°C° 0 mm 5 m/s 755 mmHg 60%
22:00 +22°C° 0.1 mm 5 m/s 755 mmHg 63%
23:00 +21°C° 0.1 mm 5 m/s 755 mmHg 66%

20 Mai, Jeudi

Heure Température Précipitation Vent Pression Humidité
00:00 +20°C° 0.1 mm 4 m/s 755 mmHg 68%
01:00 +20°C° 0.1 mm 5 m/s 755 mmHg 71%
02:00 +20°C° 0.1 mm 5 m/s 755 mmHg 73%
03:00 +19°C° 0.1 mm 6 m/s 755 mmHg 76%
04:00 +20°C° 0.2 mm 6 m/s 755 mmHg 76%
05:00 +20°C° 0.2 mm 6 m/s 755 mmHg 75%
06:00 +20°C° 0.2 mm 6 m/s 755 mmHg 75%
07:00 +22°C° 0 mm 6 m/s 755 mmHg 70%
08:00 +23°C° 0 mm 6 m/s 755 mmHg 64%
09:00 +24°C° 0 mm 6 m/s 755 mmHg 59%
10:00 +27°C° 0 mm 6 m/s 755 mmHg 55%
11:00 +28°C° 0 mm 6 m/s 755 mmHg 51%
12:00 +29°C° 0 mm 6 m/s 755 mmHg 47%
13:00 +29°C° 0 mm 5 m/s 755 mmHg 46%
14:00 +30°C° 0 mm 5 m/s 755 mmHg 46%
15:00 +30°C° 0 mm 5 m/s 755 mmHg 45%
16:00 +28°C° 0 mm 4 m/s 756 mmHg 51%
17:00 +27°C° 0 mm 4 m/s 756 mmHg 57%
18:00 +25°C° 0 mm 4 m/s 756 mmHg 63%
19:00 +24°C° 0.5 mm 3 m/s 756 mmHg 71%
20:00 +21°C° 0.5 mm 3 m/s 757 mmHg 79%
21:00 +19°C° 0.5 mm 2 m/s 757 mmHg 87%
22:00 +19°C° 0.2 mm 2 m/s 757 mmHg 88%
23:00 +18°C° 0.2 mm 2 m/s 757 mmHg 89%
Voir plus

Nous avons besoin de votre consentement

Meteoprog et ses fournisseurs de services peuvent stocker et accéder à des données personnelles telles que des cookies, des identifiants d'appareils ou d'autres technologies similaires sur votre appareil et traiter ces données pour personnaliser le contenu et les publicités, ainsi que pour fournir des fonctionnalités de médias sociaux et analyser le trafic.

  • Stocker et/ou accéder à des informations sur votre appareil

    Des cookies, des identifiants d'appareils ou d'autres informations peuvent être stockés ou accessibles sur votre appareil aux fins indiquées ci-dessus.

  • Annonces et contenus personnalisés, mesure des annonces et des contenus, connaissance de l'audience et développement de produits

    Les annonces et le contenu peuvent être personnalisés en fonction d'un profil. D'autres données peuvent être ajoutées pour mieux personnaliser les annonces et le contenu. Les performances des publicités et du contenu peuvent être mesurées. Il est possible d'obtenir des informations sur le public qui a vu les publicités et le contenu. Ces données peuvent être utilisées pour développer ou améliorer l'expérience de l'utilisateur, les systèmes et les logiciels.

En cliquant sur "J'accepte", vous autorisez l'utilisation de cookies, des identifiants d'appareils, des balises web ou d'autres technologies similaires. Vos paramètres peuvent être modifiés dans le navigateur de votre appareil.

Dans certains cas, des intérêts légitimes peuvent être invoqués plutôt qu'un consentement. Vous pouvez en savoir plus à ce sujet dans notre Politique de confidentialité et de cookies.